When you browse on this site, cookies collect data to enhance your experience and personalize the content and advertising you see.
Visit our Privacy Policy to learn more. By continuing to use the site, you agree to this use of cookies and data.
  • In Sweden
  • List of Countries
  • For 7 days
  • Water Temperature
  • Weather Map
  • Weather Widgets
  • user-avatar
    Login

    Hourly Weather Kanye

    Today, 1 April, Wednesday

    Time Temperature Precipitation Wind Pressure Humidity
    00:00 +21°C° 0 mm 1 mps 652 mmHg 56%
    01:00 +21°C° 0 mm 1 mps 651 mmHg 57%
    02:00 +19°C° 0 mm 2 mps 652 mmHg 58%
    03:00 +19°C° 0 mm 2 mps 652 mmHg 58%
    04:00 +19°C° 0 mm 2 mps 651 mmHg 58%
    05:00 +19°C° 0 mm 2 mps 651 mmHg 58%
    06:00 +19°C° 0 mm 2 mps 652 mmHg 56%
    07:00 +20°C° 0 mm 2 mps 653 mmHg 53%
    08:00 +20°C° 0 mm 2 mps 654 mmHg 50%
    09:00 +21°C° 0 mm 2 mps 654 mmHg 50%
    10:00 +21°C° 0 mm 2 mps 654 mmHg 50%
    11:00 +23°C° 0 mm 2 mps 654 mmHg 50%
    12:00 +24°C° 0 mm 2 mps 654 mmHg 47%
    13:00 +25°C° 0 mm 2 mps 654 mmHg 44%
    14:00 +25°C° 0 mm 2 mps 653 mmHg 46%
    15:00 +25°C° 0 mm 2 mps 653 mmHg 44%
    16:00 +26°C° 0 mm 2 mps 653 mmHg 42%
    17:00 +26°C° 0 mm 2 mps 653 mmHg 41%
    18:00 +25°C° 0 mm 2 mps 653 mmHg 45%
    19:00 +23°C° 0 mm 2 mps 653 mmHg 50%
    20:00 +21°C° 0 mm 2 mps 653 mmHg 54%
    21:00 +21°C° 0 mm 2 mps 653 mmHg 54%
    22:00 +21°C° 0 mm 2 mps 653 mmHg 54%
    23:00 +21°C° 0 mm 2 mps 653 mmHg 54%

    Tomorrow, 2 April, Thursday

    Time Temperature Precipitation Wind Pressure Humidity
    00:00 +21°C° 0 mm 2 mps 653 mmHg 55%
    01:00 +20°C° 0 mm 3 mps 653 mmHg 56%
    02:00 +20°C° 0 mm 4 mps 653 mmHg 57%
    03:00 +20°C° 0.2 mm 5 mps 653 mmHg 64%
    04:00 +19°C° 0.2 mm 5 mps 653 mmHg 72%
    05:00 +17°C° 0.2 mm 6 mps 653 mmHg 79%
    06:00 +17°C° 0 mm 7 mps 654 mmHg 78%
    07:00 +18°C° 0 mm 7 mps 654 mmHg 76%
    08:00 +18°C° 0 mm 8 mps 655 mmHg 75%
    09:00 +20°C° 0 mm 8 mps 655 mmHg 67%
    10:00 +21°C° 0 mm 8 mps 656 mmHg 60%
    11:00 +23°C° 0 mm 8 mps 656 mmHg 52%
    12:00 +24°C° 0 mm 7 mps 656 mmHg 48%
    13:00 +26°C° 0 mm 6 mps 656 mmHg 44%
    14:00 +28°C° 0 mm 6 mps 655 mmHg 39%
    15:00 +27°C° 0 mm 6 mps 655 mmHg 39%
    16:00 +27°C° 0 mm 5 mps 654 mmHg 39%
    17:00 +27°C° 0 mm 5 mps 654 mmHg 39%
    18:00 +25°C° 0.1 mm 4 mps 654 mmHg 45%
    19:00 +22°C° 0.1 mm 4 mps 653 mmHg 50%
    20:00 +21°C° 0.1 mm 3 mps 653 mmHg 56%
    21:00 +20°C° 0 mm 3 mps 653 mmHg 58%
    22:00 +19°C° 0 mm 2 mps 654 mmHg 60%
    23:00 +19°C° 0 mm 2 mps 654 mmHg 61%

    Day after tomorrow, 3 April, Friday

    Time Temperature Precipitation Wind Pressure Humidity
    00:00 +18°C° 0 mm 2 mps 654 mmHg 62%
    01:00 +18°C° 0 mm 2 mps 654 mmHg 63%
    02:00 +18°C° 0 mm 2 mps 654 mmHg 64%
    03:00 +17°C° 0 mm 3 mps 654 mmHg 61%
    04:00 +17°C° 0 mm 3 mps 654 mmHg 57%
    05:00 +17°C° 0 mm 3 mps 654 mmHg 54%
    06:00 +15°C° 0 mm 4 mps 654 mmHg 56%
    07:00 +15°C° 0 mm 4 mps 654 mmHg 58%
    08:00 +15°C° 0 mm 5 mps 655 mmHg 59%
    09:00 +16°C° 0 mm 5 mps 655 mmHg 57%
    10:00 +17°C° 0 mm 5 mps 655 mmHg 54%
    11:00 +19°C° 0 mm 5 mps 656 mmHg 51%
    12:00 +19°C° 0 mm 4 mps 655 mmHg 52%
    13:00 +19°C° 0 mm 3 mps 655 mmHg 52%
    14:00 +20°C° 0 mm 2 mps 654 mmHg 53%
    15:00 +19°C° 0.1 mm 2 mps 654 mmHg 56%
    16:00 +19°C° 0.1 mm 3 mps 653 mmHg 58%
    17:00 +18°C° 0.1 mm 3 mps 653 mmHg 61%
    18:00 +18°C° 0 mm 2 mps 653 mmHg 64%
    19:00 +17°C° 0 mm 2 mps 653 mmHg 67%
    20:00 +18°C° 0 mm 1 mps 653 mmHg 71%
    21:00 +18°C° 0 mm 1 mps 653 mmHg 70%
    22:00 +18°C° 0 mm 1 mps 653 mmHg 70%
    23:00 +18°C° 0 mm 1 mps 653 mmHg 70%

    4 April, Saturday

    Time Temperature Precipitation Wind Pressure Humidity
    00:00 +18°C° 0 mm 1 mps 653 mmHg 70%
    01:00 +18°C° 0 mm 1 mps 653 mmHg 70%
    02:00 +18°C° 0 mm 1 mps 653 mmHg 69%
    03:00 +16°C° 0 mm 1 mps 652 mmHg 72%
    04:00 +16°C° 0 mm 1 mps 652 mmHg 74%
    05:00 +15°C° 0 mm 1 mps 652 mmHg 76%
    06:00 +16°C° 0 mm 2 mps 653 mmHg 72%
    07:00 +16°C° 0 mm 2 mps 653 mmHg 69%
    08:00 +17°C° 0 mm 3 mps 654 mmHg 65%
    09:00 +19°C° 0 mm 3 mps 654 mmHg 57%
    10:00 +21°C° 0 mm 3 mps 654 mmHg 50%
    11:00 +25°C° 0 mm 3 mps 655 mmHg 42%
    12:00 +25°C° 0 mm 2 mps 654 mmHg 39%
    13:00 +26°C° 0 mm 2 mps 654 mmHg 36%
    14:00 +27°C° 0 mm 1 mps 653 mmHg 33%
    15:00 +26°C° 0 mm 1 mps 653 mmHg 36%
    16:00 +25°C° 0 mm 2 mps 652 mmHg 40%
    17:00 +24°C° 0 mm 2 mps 651 mmHg 43%
    18:00 +23°C° 0 mm 2 mps 652 mmHg 44%
    19:00 +23°C° 0 mm 1 mps 652 mmHg 46%
    20:00 +22°C° 0 mm 1 mps 652 mmHg 48%
    21:00 +21°C° 0 mm 1 mps 652 mmHg 50%
    22:00 +20°C° 0 mm 1 mps 652 mmHg 53%
    23:00 +18°C° 0 mm 0 mps 652 mmHg 56%

    5 April, Sunday

    Time Temperature Precipitation Wind Pressure Humidity
    00:00 +17°C° 0 mm 0 mps 651 mmHg 57%
    01:00 +18°C° 0 mm 1 mps 651 mmHg 59%
    02:00 +18°C° 0 mm 1 mps 651 mmHg 60%
    03:00 +16°C° 0 mm 0 mps 651 mmHg 61%
    04:00 +15°C° 0 mm 0 mps 651 mmHg 62%
    05:00 +15°C° 0 mm 0 mps 650 mmHg 63%
    06:00 +19°C° 0 mm 1 mps 651 mmHg 57%
    07:00 +20°C° 0 mm 1 mps 652 mmHg 51%
    08:00 +22°C° 0 mm 1 mps 653 mmHg 46%
    09:00 +24°C° 0 mm 1 mps 653 mmHg 39%
    10:00 +26°C° 0 mm 1 mps 654 mmHg 32%
    11:00 +28°C° 0 mm 1 mps 654 mmHg 26%
    12:00 +29°C° 0 mm 2 mps 654 mmHg 24%
    13:00 +30°C° 0 mm 2 mps 653 mmHg 21%
    14:00 +31°C° 0 mm 3 mps 653 mmHg 19%
    15:00 +30°C° 0 mm 3 mps 652 mmHg 20%
    16:00 +30°C° 0 mm 4 mps 652 mmHg 20%
    17:00 +29°C° 0 mm 4 mps 651 mmHg 21%
    18:00 +27°C° 0 mm 4 mps 651 mmHg 25%
    19:00 +25°C° 0 mm 3 mps 651 mmHg 29%
    20:00 +22°C° 0 mm 3 mps 651 mmHg 32%
    21:00 +21°C° 0 mm 2 mps 650 mmHg 34%
    22:00 +21°C° 0 mm 2 mps 650 mmHg 35%
    23:00 +21°C° 0 mm 1 mps 650 mmHg 37%

    6 April, Monday

    Time Temperature Precipitation Wind Pressure Humidity
    00:00 +20°C° 0 mm 1 mps 650 mmHg 38%
    01:00 +18°C° 0 mm 0 mps 649 mmHg 39%
    02:00 +17°C° 0 mm 0 mps 649 mmHg 40%
    03:00 +17°C° 0 mm 0 mps 649 mmHg 40%
    04:00 +17°C° 0 mm 0 mps 649 mmHg 40%
    05:00 +17°C° 0 mm 0 mps 648 mmHg 40%
    06:00 +20°C° 0 mm 1 mps 649 mmHg 37%
    07:00 +22°C° 0 mm 1 mps 650 mmHg 34%
    08:00 +24°C° 0 mm 1 mps 651 mmHg 31%
    09:00 +26°C° 0 mm 2 mps 651 mmHg 27%
    10:00 +28°C° 0 mm 3 mps 652 mmHg 24%
    11:00 +30°C° 0 mm 3 mps 652 mmHg 20%
    12:00 +32°C° 0 mm 4 mps 652 mmHg 19%
    13:00 +33°C° 0 mm 4 mps 651 mmHg 18%
    14:00 +34°C° 0 mm 5 mps 651 mmHg 17%
    15:00 +33°C° 0 mm 5 mps 650 mmHg 18%
    16:00 +32°C° 0 mm 5 mps 650 mmHg 19%
    17:00 +32°C° 0 mm 5 mps 649 mmHg 19%
    18:00 +29°C° 0 mm 4 mps 649 mmHg 23%
    19:00 +27°C° 0 mm 4 mps 649 mmHg 27%
    20:00 +25°C° 0 mm 3 mps 649 mmHg 31%
    21:00 +24°C° 0 mm 3 mps 649 mmHg 32%
    22:00 +24°C° 0 mm 3 mps 649 mmHg 33%
    23:00 +22°C° 0 mm 3 mps 650 mmHg 34%
    Show more